Shreveport, LA

1:42 PM CST on December 10, 2016 (GMT -0600)
Shreveport Regional

Weather History for KSHV - January, 2014

Change the Weather History Date:

Saturday, January 25, 2014

  Actual Average Record
Temperature  
Mean Temperature 45 °F 47 °F  
Max Temperature 62 °F 58 °F 85 °F (1950)
Min Temperature 27 °F 37 °F 14 °F (1894)
Degree Days  
Heating Degree Days 20 18  
Month to date heating degree days 523 467  
Since 1 July heating degree days 1493 1369  
Cooling Degree Days 0 0  
Month to date cooling degree days 0 0  
Year to date cooling degree days 0 0  
Moisture  
Dew Point 23 °F    
Average Humidity 43    
Maximum Humidity 63    
Minimum Humidity 23    
Precipitation  
Precipitation 0.00 in 0.14 in 1.68 in (1932)
Month to date precipitation 0.82 3.29  
Year to date precipitation 0.82 3.29  
Snow  
Snow 0.00 in - - ()
Month to date snowfall T  
Since 1 July snowfall T  
Snow Depth 0.00 in    
Sea Level Pressure  
Sea Level Pressure 30.10 in    
Wind  
Wind Speed 6 mph (WSW)    
Max Wind Speed 13 mph    
Max Gust Speed 16 mph    
Visibility 10 miles    
Events      
T = Trace of Precipitation, MM = Missing Value Source: NWS Daily Summary

Daily Weather History Graph

Daily Weather History Graph

Search for Another Location

Airport or City:

Trip Planner

Search our weather history database for the weather conditions in past years. The results will help you decide how hot, cold, wet, or windy it might be!

Date:

Astronomy

Jan. 25, 2014 Rise Set
Actual Time 7:13 AM CST 5:42 PM CST
Civil Twilight 6:47 AM CST 6:08 PM CST
Nautical Twilight 6:17 AM CST 6:37 PM CST
Astronomical Twilight 5:48 AM CST 7:07 PM CST
Moon 1:47 AM CST (1/25) 12:42 PM CST (1/25)
Length of Visible Light 11h 20m
Length of Day
10h 28m
Waning Crescent, 34% of the Moon is Illuminated
Jan 25
Waning Crescent
Jan 30
New
Feb 6
First Quarter
Feb 14
Full
Feb 22
Last Quarter

Hourly Weather History & Observations

Time (CST) Temp. Windchill Dew Point Humidity Pressure Visibility Wind Dir Wind Speed Gust Speed Precip Events Conditions
12:56 AM 28.9 °F 19.8 °F 18.0 °F 64% 30.26 in 10.0 mi SW 10.4 mph - N/A   Clear
1:56 AM 28.0 °F 21.7 °F 18.0 °F 66% 30.25 in 10.0 mi WSW 5.8 mph - N/A   Clear
2:56 AM 28.0 °F 20.8 °F 18.0 °F 66% 30.22 in 10.0 mi SSW 6.9 mph - N/A   Clear
3:56 AM 28.0 °F 20.0 °F 17.1 °F 63% 30.19 in 10.0 mi SW 8.1 mph - N/A   Clear
4:56 AM 28.0 °F 20.8 °F 17.1 °F 63% 30.16 in 10.0 mi SW 6.9 mph - N/A   Clear
5:56 AM 28.9 °F 20.4 °F 17.1 °F 61% 30.15 in 10.0 mi SW 9.2 mph - N/A   Clear
6:56 AM 28.9 °F 21.9 °F 18.0 °F 64% 30.16 in 10.0 mi SW 6.9 mph - N/A   Clear
7:56 AM 30.9 °F 24.3 °F 19.0 °F 61% 30.14 in 10.0 mi SW 6.9 mph - N/A   Clear
8:56 AM 36.0 °F 28.5 °F 21.0 °F 55% 30.14 in 10.0 mi SW 10.4 mph - N/A   Clear
9:56 AM 42.1 °F 37.1 °F 21.0 °F 43% 30.14 in 10.0 mi WSW 8.1 mph - N/A   Partly Cloudy
10:56 AM 48.0 °F - 21.9 °F 36% 30.14 in 10.0 mi Variable 5.8 mph - N/A   Partly Cloudy
11:56 AM 53.1 °F - 21.0 °F 29% 30.10 in 10.0 mi Variable 5.8 mph - N/A   Scattered Clouds
12:56 PM 55.9 °F - 21.9 °F 27% 30.06 in 10.0 mi WNW 8.1 mph - N/A   Scattered Clouds
1:56 PM 59.0 °F - 23.0 °F 25% 30.04 in 10.0 mi Variable 5.8 mph - N/A   Scattered Clouds
2:56 PM 60.1 °F - 24.1 °F 25% 30.03 in 10.0 mi West 6.9 mph - N/A   Scattered Clouds
3:56 PM 62.1 °F - 25.0 °F 24% 30.03 in 10.0 mi Variable 6.9 mph - N/A   Scattered Clouds
4:56 PM 59.0 °F - 27.0 °F 29% 30.03 in 10.0 mi West 4.6 mph - N/A   Mostly Cloudy
5:56 PM 52.0 °F - 28.0 °F 40% 30.04 in 10.0 mi Calm Calm - N/A   Mostly Cloudy
6:56 PM 48.0 °F - 30.0 °F 50% 30.05 in 10.0 mi Calm Calm - N/A   Mostly Cloudy
7:56 PM 46.9 °F - 30.0 °F 52% 30.05 in 10.0 mi WSW 4.6 mph - N/A   Mostly Cloudy
8:56 PM 45.0 °F - 30.0 °F 56% 30.04 in 10.0 mi Calm Calm - N/A   Mostly Cloudy
9:56 PM 43.0 °F 40.3 °F 30.0 °F 60% 30.04 in 10.0 mi WSW 4.6 mph - N/A   Mostly Cloudy
10:56 PM 42.1 °F - 30.0 °F 62% 30.02 in 10.0 mi Calm Calm - N/A   Mostly Cloudy
11:56 PM 41.0 °F - 30.9 °F 67% 30.00 in 10.0 mi Calm Calm - N/A   Mostly Cloudy